H1 CPF 2 NER 2024 3 25 9 085 01 glonass146 H2 2216101 9146 54377 2024 3 25 0 0 0 2024 3 28 23 45 0 900 1 1 0 0 0 1 H9 10 0 60394 0.00000 0 16386047.811 760561.667 -19541985.172 10 0 60394 900.00000 0 18320101.543 1999431.656 -17648564.768 10 0 60394 1800.00000 0 20121762.682 2962534.174 -15412697.657 10 0 60394 2700.00000 0 21728071.764 3656852.806 -12877831.176 10 0 60394 3600.00000 0 23080737.219 4101410.090 -10093187.889 10 0 60394 4500.00000 0 24128524.449 4326205.455 -7112810.829 10 0 60394 5400.00000 0 24829368.194 4370692.317 -3994516.861 10 0 60394 6300.00000 0 25152120.330 4281859.573 -798778.250 10 0 60394 7200.00000 0 25077860.369 4111999.145 2412446.025 10 0 60394 8100.00000 0 24600714.120 3916254.224 5576906.782 10 0 60394 9000.00000 0 23728146.449 3750051.968 8633266.039 10 0 60394 9900.00000 0 22480715.875 3666529.089 11522280.251 10 0 60394 10800.00000 0 20891301.132 3714058.981 14187942.821 10 0 60394 11700.00000 0 19003831.633 3933984.755 16578564.206 10 0 60394 12600.00000 0 16871574.332 4358653.837 18647769.117 10 0 60394 13500.00000 0 14555047.712 5009837.284 20355392.073 10 0 60394 14400.00000 0 12119648.951 5897600.900 21668254.459 10 0 60394 15300.00000 0 9633092.128 7019676.553 22560808.429 10 0 60394 16200.00000 0 7162763.018 8361361.330 23015635.498 10 0 60394 17100.00000 0 4773099.482 9895950.346 23023790.150 10 0 60394 18000.00000 0 2523105.490 11585686.846 22584981.617 10 0 60394 18900.00000 0 464101.370 13383191.680 21707589.763 10 0 60394 19800.00000 0 -1362196.717 15233314.221 20408513.974 10 0 60394 20700.00000 0 -2925188.487 17075328.854 18712856.990 10 0 60394 21600.00000 0 -4206429.670 18845386.455 16653448.696 10 0 60394 22500.00000 0 -5200157.317 20479119.063 14270217.964 10 0 60394 23400.00000 0 -5913278.433 21914288.958 11609423.779 10 0 60394 24300.00000 0 -6364822.639 23093370.881 8722759.826 10 0 60394 25200.00000 0 -6584882.260 23965958.426 5666349.508 10 0 60394 26100.00000 0 -6613085.044 24490892.507 2499650.987 10 0 60394 27000.00000 0 -6496664.797 24638021.237 -715706.089 10 0 60394 27900.00000 0 -6288212.550 24389515.974 -3917128.755 10 0 60394 28800.00000 0 -6043204.709 23740687.030 -7042289.202 10 0 60394 29700.00000 0 -5817414.288 22700263.851 -10030348.450 10 0 60394 30600.00000 0 -5664316.373 21290127.342 -12823150.184 10 0 60394 31500.00000 0 -5632599.156 19544505.411 -15366360.406 10 0 60394 32400.00000 0 -5763887.176 17508665.653 -17610529.871 10 0 60394 33300.00000 0 -6090774.158 15237160.411 -19512058.167 10 0 60394 34200.00000 0 -6635249.335 12791698.268 -21034040.484 10 0 60394 35100.00000 0 -7407584.201 10238731.527 -22146980.864 10 0 60394 36000.00000 0 -8405726.848 7646860.832 -22829358.621 10 0 60394 36900.00000 0 -9615229.470 5084165.357 -23068037.662 10 0 60394 37800.00000 0 -11009711.996 2615569.599 -22858511.680 10 0 60394 38700.00000 0 -12551842.338 300355.763 -22204981.385 10 0 60394 39600.00000 0 -14194792.050 -1810075.666 -21120263.095 10 0 60394 40500.00000 0 -15884106.422 -3674105.403 -19625531.199 10 0 60394 41400.00000 0 -17559910.835 -5261377.473 -17749899.949 10 0 60394 42300.00000 0 -19159361.186 -6553804.076 -15529853.050 10 0 60394 43200.00000 0 -20619236.154 -7546053.303 -13008532.215 10 0 60394 44100.00000 0 -21878563.161 -8245501.323 -10234898.477 10 0 60394 45000.00000 0 -22881168.461 -8671652.916 -7262782.417 10 0 60394 45900.00000 0 -23578044.960 -8855056.352 -4149841.576 10 0 60394 46800.00000 0 -23929438.930 -8835759.589 -956445.041 10 0 60394 47700.00000 0 -23906568.443 -8661373.832 2255493.299 10 0 60394 48600.00000 0 -23492901.706 -8384826.761 5423710.439 10 0 60394 49500.00000 0 -22684941.757 -8061900.617 8486795.952 10 0 60394 50400.00000 0 -21492484.536 -7748659.159 11385376.620 10 0 60394 51300.00000 0 -19938339.215 -7498872.082 14063261.424 10 0 60394 52200.00000 0 -18057521.945 -7361545.408 16468525.148 10 0 60394 53100.00000 0 -15895955.998 -7378661.934 18554510.042 10 0 60394 54000.00000 0 -13508731.611 -7583226.920 20280726.723 10 0 60394 54900.00000 0 -10957996.965 -7997701.555 21613637.366 10 0 60394 55800.00000 0 -8310566.949 -8632890.559 22527306.441 10 0 60394 56700.00000 0 -5635347.891 -9487331.520 23003906.669 10 0 60394 57600.00000 0 -3000684.068 -10547212.724 23034070.472 10 0 60394 58500.00000 0 -471735.156 -11786824.357 22617079.857 10 0 60394 59400.00000 0 1892007.428 -13169525.764 21760890.564 10 0 60394 60300.00000 0 4038962.819 -14649189.902 20481989.205 10 0 60394 61200.00000 0 5927368.898 -16172066.019 18805085.188 10 0 60394 62100.00000 0 7526777.271 -17678983.793 16762642.244 10 0 60394 63000.00000 0 8819072.892 -19107807.512 14394257.541 10 0 60394 63900.00000 0 9798975.838 -20396037.742 11745899.429 10 0 60394 64800.00000 0 10474004.382 -21483451.256 8869017.861 10 0 60394 65700.00000 0 10863901.215 -22314667.737 5819544.351 10 0 60394 66600.00000 0 10999547.360 -22841534.374 2656800.906 10 0 60394 67500.00000 0 10921410.312 -23025226.730 -557660.457 10 0 60394 68400.00000 0 10677592.821 -22837976.078 -3761264.303 10 0 60394 69300.00000 0 10321566.009 -22264349.025 -6891639.890 10 0 60394 70200.00000 0 9909684.098 -21302024.368 -9887845.743 10 0 60394 71100.00000 0 9498587.390 -19962033.499 -12691565.601 10 0 60394 72000.00000 0 9142604.875 -18268453.663 -15248251.342 10 0 60394 72900.00000 0 8891267.689 -16257566.685 -17508189.773 10 0 60394 73800.00000 0 8787039.649 -13976518.468 -19427472.032 10 0 60394 74700.00000 0 8863361.539 -11481535.712 -20968846.519 10 0 60394 75600.00000 0 9143092.167 -8835774.751 -22102439.045 10 0 60394 76500.00000 0 9637412.052 -6106892.630 -22806326.694 10 0 60394 77400.00000 0 10345235.831 -3364441.863 -23066955.039 10 0 60394 78300.00000 0 11253157.806 -677197.258 -22879391.473 10 0 60394 79200.00000 0 12335932.561 1889474.475 -22247410.708 10 0 60394 80100.00000 0 13557470.095 4276093.690 -21183411.585 10 0 60394 81000.00000 0 14872303.400 6431293.501 -19708167.540 10 0 60394 81900.00000 0 16227466.771 8313701.090 -17850416.075 10 0 60394 82800.00000 0 17564705.962 9893398.062 -15646295.520 10 0 60394 83700.00000 0 18822927.623 11152900.868 -13138640.156 10 0 60394 84600.00000 0 19940785.456 12087622.356 -10376147.351 10 0 60394 85500.00000 0 20859294.824 12705797.046 -7412432.792 10 0 60395 0.00000 0 21524366.370 13027875.007 -4304992.247 10 0 60395 900.00000 0 21889152.862 13085411.455 -1114088.110 10 0 60395 1800.00000 0 21916110.145 12919499.608 2098413.654 10 0 60395 2700.00000 0 21578686.983 12578814.229 5270239.369 10 0 60395 3600.00000 0 20862571.899 12117348.384 8339909.264 10 0 60395 4500.00000 0 19766444.913 11591939.313 11247923.415 10 0 60395 5400.00000 0 18302202.178 11059687.728 13937909.148 10 0 60395 6300.00000 0 16494643.439 10575379.174 16357708.087 10 0 60395 7200.00000 0 14380634.555 10189015.930 18460382.253 10 0 60395 8100.00000 0 12007778.914 9943563.173 20205120.290 10 0 60395 9000.00000 0 9432651.896 9873004.177 21558026.765 10 0 60395 9900.00000 0 6718670.496 10000786.442 22492779.698 10 0 60395 10800.00000 0 3933685.290 10338724.429 22991143.868 10 0 60395 11700.00000 0 1147393.309 10886405.663 23043330.034 10 0 60395 12600.00000 0 -1571322.002 11631126.083 22648192.902 10 0 60395 13500.00000 0 -4157014.478 12548358.568 21813263.483 10 0 60395 14400.00000 0 -6550154.585 13602736.362 20554614.490 10 0 60395 15300.00000 0 -8699361.993 14749511.468 18896560.337 10 0 60395 16200.00000 0 -10563298.966 15936428.086 16871196.474 10 0 60395 17100.00000 0 -12112145.870 17105933.391 14517785.834 10 0 60395 18000.00000 0 -13328597.305 18197633.340 11882003.292 10 0 60395 18900.00000 0 -14208337.223 19150890.346 9015052.038 10 0 60395 19800.00000 0 -14759973.246 19907453.142 5972668.544 10 0 60395 20700.00000 0 -15004433.203 20414007.200 2814035.488 10 0 60395 21600.00000 0 -14973849.776 20624537.051 -399375.898 10 0 60395 22500.00000 0 -14709981.053 20502399.435 -3605010.769 10 0 60395 23400.00000 0 -14262234.698 20022018.364 -6740458.398 10 0 60395 24300.00000 0 -13685380.502 19170129.138 -9744677.578 10 0 60395 25200.00000 0 -13037049.416 17946517.669 -12559194.644 10 0 60395 26100.00000 0 -12375126.262 16364222.971 -15129249.615 10 0 60395 27000.00000 0 -11755147.698 14449193.682 -17404867.297 10 0 60395 27900.00000 0 -11227816.490 12239412.662 -19341831.985 10 0 60395 28800.00000 0 -10836737.879 9783526.331 -20902546.549 10 0 60395 29700.00000 0 -10616474.012 7139036.131 -22056759.476 10 0 60395 30600.00000 0 -10590998.500 4370127.842 -22782146.192 10 0 60395 31500.00000 0 -10772615.982 1545229.311 -23064734.147 10 0 60395 32400.00000 0 -11161391.622 -1265601.733 -22899164.306 10 0 60395 33300.00000 0 -11745113.897 -3993351.509 -22288784.874 10 0 60395 34200.00000 0 -12499791.508 -6572675.103 -21245576.316 10 0 60395 35100.00000 0 -13390662.869 -8944364.354 -19789909.838 10 0 60395 36000.00000 0 -14373675.232 -11057557.400 -17950144.533 10 0 60395 36900.00000 0 -15397370.909 -12871599.459 -15762071.363 10 0 60395 37800.00000 0 -16405101.143 -14357479.097 -13268214.899 10 0 60395 38700.00000 0 -17337474.551 -15498781.906 -10517006.353 10 0 60395 39600.00000 0 -18134937.304 -16292123.573 -7561843.870 10 0 60395 40500.00000 0 -18740376.722 -16747045.973 -4460058.143 10 0 60395 41400.00000 0 -19101639.003 -16885382.224 -1271803.194 10 0 60395 42300.00000 0 -19173855.360 -16740118.670 1941106.297 10 0 60395 43200.00000 0 -18921478.837 -16353802.682 5116388.815 10 0 60395 44100.00000 0 -18319946.150 -15776563.977 8192498.059 10 0 60395 45000.00000 0 -17356894.505 -15063833.170 11109810.164 10 0 60395 45900.00000 0 -16032881.889 -14273853.749 13811773.446 10 0 60395 46800.00000 0 -14361579.932 -13465092.138 16245998.839 10 0 60395 47700.00000 0 -12369430.332 -12693654.589 18365270.344 10 0 60395 48600.00000 0 -10094777.997 -12010819.247 20128456.496 10 0 60395 49500.00000 0 -7586515.670 -11460786.829 21501305.719 10 0 60395 50400.00000 0 -4902294.941 -11078744.202 22457110.599 10 0 60395 51300.00000 0 -2106376.442 -10889322.177 22977228.524 10 0 60395 52200.00000 0 732793.095 -10905512.443 23051448.691 10 0 60395 53100.00000 0 3545177.827 -11128089.611 22678198.161 10 0 60395 54000.00000 0 6261817.391 -11545563.363 21864582.502 10 0 60395 54900.00000 0 8817449.600 -12134663.660 20626259.439 10 0 60395 55800.00000 0 11152983.104 -12861339.722 18987146.995 10 0 60395 56700.00000 0 13217717.685 -13682231.841 16978970.643 10 0 60395 57600.00000 0 14971220.022 -14546555.073 14640657.093 10 0 60395 58500.00000 0 16384776.658 -15398316.153 12017585.476 10 0 60395 59400.00000 0 17442363.390 -16178770.489 9160709.667 10 0 60395 60300.00000 0 18141090.418 -16829015.484 6125568.301 10 0 60395 61200.00000 0 18491104.569 -17292610.076 2971201.734 10 0 60395 62100.00000 0 18514952.962 -17518108.889 -241002.690 10 0 60395 63000.00000 0 18246435.422 -17461402.578 -3448513.849 10 0 60395 63900.00000 0 17728994.799 -17087764.001 -6588884.079 10 0 60395 64800.00000 0 17013714.247 -16373512.218 -9600975.333 10 0 60395 65700.00000 0 16157007.246 -15307222.639 -12426159.204 10 0 60395 66600.00000 0 15218099.361 -13890431.026 -15009466.240 10 0 60395 67500.00000 0 14256409.350 -12137800.736 -17300661.347 10 0 60395 68400.00000 0 13328941.395 -10076745.478 -19255223.747 10 0 60395 69300.00000 0 12487799.264 -7746523.037 -20835212.233 10 0 60395 70200.00000 0 11777927.759 -5196837.738 -22009999.052 10 0 60395 71100.00000 0 11235176.601 -2486009.982 -22756858.690 10 0 60395 72000.00000 0 10884767.968 321210.728 -23061400.832 10 0 60395 72900.00000 0 10740231.460 3156098.319 -22917839.985 10 0 60395 73800.00000 0 10802850.357 5948566.435 -22329097.481 10 0 60395 74700.00000 0 11061641.419 8629840.192 -21306734.710 10 0 60395 75600.00000 0 11493867.999 11135073.128 -19870719.638 10 0 60395 76500.00000 0 12066063.945 13405801.630 -18049031.650 10 0 60395 77400.00000 0 12735524.436 15392136.011 -15877112.748 10 0 60395 78300.00000 0 13452200.451 17054598.506 -13397175.908 10 0 60395 79200.00000 0 14160916.803 18365533.238 -10657384.008 10 0 60395 80100.00000 0 14803820.159 19310030.894 -7710915.191 10 0 60395 81000.00000 0 15322953.985 19886331.128 -4614932.628 10 0 60395 81900.00000 0 15662851.986 20105687.357 -1429478.484 10 0 60395 82800.00000 0 15773040.950 19991700.929 1783686.647 10 0 60395 83700.00000 0 15610347.629 19579153.720 4962276.516 10 0 60395 84600.00000 0 15140912.519 18912388.995 8044681.352 10 0 60395 85500.00000 0 14341825.624 18043309.113 10971156.278 10 0 60396 0.00000 0 13202315.158 17029074.559 13684973.111 10 0 60396 900.00000 0 11724437.949 15929600.429 16133515.079 10 0 60396 1800.00000 0 9923243.246 14804956.719 18269290.146 10 0 60396 2700.00000 0 7826399.855 13712779.397 20050848.685 10 0 60396 3600.00000 0 5473302.105 12705801.826 21443584.615 10 0 60396 4500.00000 0 2913689.747 11829609.147 22420406.391 10 0 60396 5400.00000 0 205837.544 11120709.544 22962264.936 10 0 60396 6300.00000 0 -2585612.031 10605003.088 23058528.392 10 0 60396 7200.00000 0 -5392084.618 10296712.408 22707196.223 10 0 60396 8100.00000 0 -8143678.772 10197820.318 21914948.076 10 0 60396 9000.00000 0 -10771832.926 10298038.507 20697025.693 10 0 60396 9900.00000 0 -13211944.643 10575309.284 19076949.171 10 0 60396 10800.00000 0 -15405833.942 10996820.054 17086071.964 10 0 60396 11700.00000 0 -17303948.430 11520488.567 14762982.082 10 0 60396 12600.00000 0 -18867218.289 12096856.928 12152760.086 10 0 60396 13500.00000 0 -20068483.440 12671314.817 9306107.475 10 0 60396 14400.00000 0 -20893432.891 13186557.964 6278361.857 10 0 60396 15300.00000 0 -21341016.612 13585177.523 3128418.042 10 0 60396 16200.00000 0 -21423312.585 13812269.980 -82423.700 10 0 60396 17100.00000 0 -21164854.754 13817955.949 -3291659.062 10 0 60396 18000.00000 0 -20601450.708 13559699.836 -6436806.412 10 0 60396 18900.00000 0 -19778539.676 13004330.651 -9456633.678 10 0 60396 19800.00000 0 -18749161.204 12129677.004 -12292360.322 10 0 60396 20700.00000 0 -17571621.408 10925745.792 -14888809.803 10 0 60396 21600.00000 0 -16306956.531 9395393.677 -17195489.199 10 0 60396 22500.00000 0 -15016301.894 7554462.134 -19167574.403 10 0 60396 23400.00000 0 -13758278.052 5431369.745 -20766781.480 10 0 60396 24300.00000 0 -12586504.739 3066178.405 -21962107.393 10 0 60396 25200.00000 0 -11547347.356 509172.260 -22730426.239 10 0 60396 26100.00000 0 -10677990.436 -2180991.392 -23056930.077 10 0 60396 27000.00000 0 -10004918.284 -4939482.291 -22935406.707 10 0 60396 27900.00000 0 -9542865.582 -7697757.140 -22368349.947 10 0 60396 28800.00000 0 -9294280.708 -10386177.271 -21366901.102 10 0 60396 29700.00000 0 -9249322.934 -12936675.823 -19950623.533 10 0 60396 30600.00000 0 -9386392.232 -15285364.368 -18147115.227 10 0 60396 31500.00000 0 -9673168.183 -17374971.558 -15991467.255 10 0 60396 32400.00000 0 -10068113.241 -19157013.542 -13525578.804 10 0 60396 33300.00000 0 -10522376.299 -20593607.042 -10797342.058 10 0 60396 34200.00000 0 -10982015.840 -21658850.893 -7859712.693 10 0 60396 35100.00000 0 -11390448.669 -22339719.729 -4769683.853 10 0 60396 36000.00000 0 -11691020.870 -22636433.831 -1587183.306 10 0 60396 36900.00000 0 -11829592.530 -22562290.845 1626084.971 10 0 60396 37800.00000 0 -11757027.283 -22142967.478 4807832.531 10 0 60396 38700.00000 0 -11431481.684 -21415321.273 7896388.662 10 0 60396 39600.00000 0 -10820397.848 -20425743.301 10831889.980 10 0 60396 40500.00000 0 -9902115.168 -19228131.183 13557434.716 10 0 60396 41400.00000 0 -8667032.764 -17881567.534 16020179.769 10 0 60396 42300.00000 0 -7118273.086 -16447800.987 18172359.739 10 0 60396 43200.00000 0 -5271817.652 -14988635.018 19972208.773 10 0 60396 44100.00000 0 -3156107.835 -13563333.443 21384767.911 10 0 60396 45000.00000 0 -811125.677 -12226150.662 22382562.746 10 0 60396 45900.00000 0 1713008.816 -11024089.485 22946138.627 10 0 60396 46800.00000 0 4357867.450 -9994979.901 23064443.127 10 0 60396 47700.00000 0 7058896.508 -9165958.925 22735048.212 10 0 60396 48600.00000 0 9747863.360 -8552415.047 21964207.335 10 0 60396 49500.00000 0 12355466.880 -8157441.626 20766745.623 10 0 60396 50400.00000 0 14814004.358 -7971822.435 19165784.281 10 0 60396 51300.00000 0 17059984.744 -7974550.378 17192303.447 10 0 60396 52200.00000 0 19036579.845 -8133858.026 14884550.807 10 0 60396 53100.00000 0 20695811.235 -8408716.951 12287306.394 10 0 60396 54000.00000 0 22000381.289 -8750742.838 9451017.029 10 0 60396 54900.00000 0 22925071.292 -9106425.857 6430816.673 10 0 60396 55800.00000 0 23457647.489 -9419591.596 3285451.667 10 0 60396 56700.00000 0 23599236.683 -9633987.631 76132.073 10 0 60396 57600.00000 0 23364155.360 -9695885.116 -3134667.892 10 0 60396 58500.00000 0 22779199.662 -9556583.819 -6284435.904 10 0 60396 59400.00000 0 21882426.534 -9174712.985 -9311849.033 10 0 60396 60300.00000 0 20721478.167 -8518229.049 -12157977.583 10 0 60396 61200.00000 0 19351521.336 -7566024.201 -14767440.608 10 0 60396 62100.00000 0 17832889.591 -6309076.531 -17089489.731 10 0 60396 63000.00000 0 16228528.677 -4751092.133 -19078999.545 10 0 60396 63900.00000 0 14601353.648 -2908611.278 -20697345.074 10 0 60396 64800.00000 0 13011629.443 -810573.613 -21913149.346 10 0 60396 65700.00000 0 11514485.194 1502639.832 -22702887.061 10 0 60396 66600.00000 0 10157666.427 3980647.987 -23051333.291 10 0 60396 67500.00000 0 8979618.776 6564934.464 -22951849.412 10 0 60396 68400.00000 0 8007982.469 9191058.149 -22406501.645 10 0 60396 69300.00000 0 7258559.334 11791117.884 -21426010.769 10 0 60396 70200.00000 0 6734794.015 14296369.104 -20029534.743 10 0 60396 71100.00000 0 6427789.464 16639884.208 -18244289.008 10 0 60396 72000.00000 0 6316854.447 18759146.704 -16105012.217 10 0 60396 72900.00000 0 6370558.568 20598472.071 -13653287.935 10 0 60396 73800.00000 0 6548249.180 22111155.542 -10936735.488 10 0 60396 74700.00000 0 6801965.374 23261258.364 -8008085.605 10 0 60396 75600.00000 0 7078667.691 24024959.094 -4924158.632 10 0 60396 76500.00000 0 7322689.128 24391414.630 -1744764.949 10 0 60396 77400.00000 0 7478303.788 24363095.946 1468451.233 10 0 60396 78300.00000 0 7492304.702 23955585.436 4653202.479 10 0 60396 79200.00000 0 7316482.008 23196845.037 7747760.327 10 0 60396 80100.00000 0 6909896.915 22125986.349 10692145.958 10 0 60396 81000.00000 0 6240855.389 20791594.537 13429286.679 10 0 60396 81900.00000 0 5288498.104 19249676.271 15906116.207 10 0 60396 82800.00000 0 4043939.133 17561317.405 18074597.934 10 0 60396 83700.00000 0 2510904.619 15790148.029 19892651.902 10 0 60396 84600.00000 0 705843.362 13999720.309 21324968.090 10 0 60396 85500.00000 0 -1342496.878 12250908.054 22343690.728 10 0 60397 0.00000 0 -3594011.301 10599436.088 22928960.684 10 0 60397 900.00000 0 -5998662.145 9093641.072 23069305.791 10 0 60397 1800.00000 0 -8498324.564 7772558.949 22761870.709 10 0 60397 2700.00000 0 -11028983.418 6664415.570 22012482.464 10 0 60397 3600.00000 0 -13523188.345 5785585.630 20835548.792 10 0 60397 4500.00000 0 -15912667.486 5140062.544 19253790.676 10 0 60397 5400.00000 0 -18130991.864 4719461.734 17297813.072 10 0 60397 6300.00000 0 -20116179.944 4503557.351 15005520.977 10 0 60397 7200.00000 0 -21813133.787 4461330.061 12421391.114 10 0 60397 8100.00000 0 -23175804.752 4552481.762 9595612.523 10 0 60397 9000.00000 0 -24168997.565 4729353.238 6583112.202 10 0 60397 9900.00000 0 -24769736.421 4939163.244 3442484.620 10 0 60397 10800.00000 0 -24968135.079 5126473.589 234846.202 10 0 60397 11700.00000 0 -24767733.812 5235774.766 -2977362.271 10 0 60397 12600.00000 0 -24185288.736 5214081.288 -6131601.023 10 0 60397 13500.00000 0 -23250022.388 5013425.225 -9166459.360 10 0 60397 14400.00000 0 -22002367.487 4593140.767 -12022861.320 10 0 60397 15300.00000 0 -20492257.466 3921841.535 -14645224.208 10 0 60397 16200.00000 0 -18777036.612 2979005.645 -16982546.540 10 0 60397 17100.00000 0 -16919078.703 1756100.359 -18989403.592 10 0 60397 18000.00000 0 -14983215.151 257197.983 -20626830.884 10 0 60397 18900.00000 0 -13034081.353 -1500943.611 -21863078.562 10 0 60397 19800.00000 0 -11133492.867 -3489339.757 -22674222.465 10 0 60397 20700.00000 0 -9337961.365 -5667758.109 -23044620.705 10 0 60397 21600.00000 0 -7696453.813 -7986177.406 -22967207.761 10 0 60397 22500.00000 0 -6248487.685 -10386665.178 -22443621.335 10 0 60397 23400.00000 0 -5022640.553 -12805596.258 -21484160.345 10 0 60397 24300.00000 0 -4035534.758 -15176120.010 -20107575.662 10 0 60397 25200.00000 0 -3291337.793 -17430773.895 -18340698.202 10 0 60397 26100.00000 0 -2781797.482 -19504135.094 -16217911.977 10 0 60397 27000.00000 0 -2486808.615 -21335400.392 -13780482.548 10 0 60397 27900.00000 0 -2375485.614 -22870787.563 -11075753.891 10 0 60397 28800.00000 0 -2407694.750 -24065658.935 -8156229.257 10 0 60397 29700.00000 0 -2535980.296 -24886279.350 -5078553.673 10 0 60397 30600.00000 0 -2707802.672 -25311135.950 -1902417.650 10 0 60397 31500.00000 0 -2867993.679 -25331765.373 1310596.786 10 0 60397 32400.00000 0 -2961324.907 -24953054.496 4498205.572 10 0 60397 33300.00000 0 -2935080.810 -24193002.674 7598624.781 10 0 60397 34200.00000 0 -2741527.766 -23081955.831 10551762.393 10 0 60397 35100.00000 0 -2340174.890 -21661344.647 13300376.941 10 0 60397 36000.00000 0 -1699731.105 -19981979.610 15791181.006 10 0 60397 36900.00000 0 -799675.645 -18101973.940 17975868.667 10 0 60397 37800.00000 0 368624.744 -16084380.760 19812047.551 10 0 60397 38700.00000 0 1801299.810 -13994642.468 21264058.022 10 0 60397 39600.00000 0 3481888.206 -11897958.025 22303664.095 10 0 60397 40500.00000 0 5381783.600 -9856677.078 22910603.055 10 0 60397 41400.00000 0 7461197.753 -7927828.710 23072983.294 10 0 60397 42300.00000 0 9670602.365 -6160887.124 22787522.485 10 0 60397 43200.00000 0 11952591.549 -4595866.747 22059621.087 10 0 60397 44100.00000 0 14244089.205 -3261825.799 20903269.003 10 0 60397 45000.00000 0 16478810.821 -2175840.545 19340786.261 10 0 60397 45900.00000 0 18589878.303 -1342492.977 17402401.614 10 0 60397 46800.00000 0 20512479.434 -753893.370 15125676.056 10 0 60397 47700.00000 0 22186461.168 -390236.722 12554781.383 10 0 60397 48600.00000 0 23558748.073 -220869.642 9739646.924 10 0 60397 49500.00000 0 24585484.103 -205822.462 6734990.459 10 0 60397 50400.00000 0 25233807.032 -297741.498 3599252.019 10 0 60397 51300.00000 0 25483180.110 -444139.021 393451.578 10 0 60397 52200.00000 0 25326224.092 -589864.732 -2820006.541 10 0 60397 53100.00000 0 24769013.919 -679692.769 -5978558.214 10 0 60397 54000.00000 0 23830827.172 -660913.187 -9020708.067 10 0 60397 54900.00000 0 22543354.815 -485816.538 -11887236.825 10 0 60397 55800.00000 0 20949407.748 -113964.788 -14522362.788 10 0 60397 56700.00000 0 19101174.122 485848.967 -16874833.840 10 0 60397 57600.00000 0 17058101.427 1334036.066 -18898928.115 10 0 60397 58500.00000 0 14884493.063 2439110.155 -20555343.515 10 0 60397 59400.00000 0 12646920.872 3797094.528 -21811958.901 10 0 60397 60300.00000 0 10411562.438 5391464.422 -22644452.565 10 0 60397 61200.00000 0 8241574.685 7193626.961 -23036766.670 10 0 60397 62100.00000 0 6194613.179 9163918.849 -22981409.509 10 0 60397 63000.00000 0 4320599.990 11253080.205 -22479590.623 10 0 60397 63900.00000 0 2659832.089 13404143.055 -21541187.065 10 0 60397 64800.00000 0 1241507.707 15554655.831 -20184542.220 10 0 60397 65700.00000 0 82730.323 17639151.343 -18436101.677 10 0 60397 66600.00000 0 -811970.021 19591755.615 -16329893.613 10 0 60397 67500.00000 0 -1450580.101 21348829.238 -13906863.983 10 0 60397 68400.00000 0 -1853015.885 22851531.578 -11214079.446 10 0 60397 69300.00000 0 -2050030.273 24048201.355 -8303813.461 10 0 60397 70200.00000 0 -2081663.598 24896454.807 -5232533.115 10 0 60397 71100.00000 0 -1995303.219 25364914.334 -2059806.187 10 0 60397 72000.00000 0 -1843434.843 25434495.905 1152850.524 10 0 60397 72900.00000 0 -1681180.891 25099201.855 4343159.473 10 0 60397 73800.00000 0 -1563730.127 24366386.257 7449284.437 10 0 60397 74700.00000 0 -1543767.099 23256482.002 10411023.307 10 0 60397 75600.00000 0 -1669009.948 21802201.035 13170968.838 10 0 60397 76500.00000 0 -1979960.455 20047241.015 15675615.311 10 0 60397 77400.00000 0 -2507961.350 18044552.070 17876390.121 10 0 60397 78300.00000 0 -3273643.031 15854235.437 19730590.892 10 0 60397 79200.00000 0 -4285825.697 13541160.829 21202210.529 10 0 60397 80100.00000 0 -5540923.982 11172400.977 22262634.706 10 0 60397 81000.00000 0 -7022880.401 8814589.174 22891198.649 10 0 60397 81900.00000 0 -8703632.028 6531308.832 23075592.585 10 0 60397 82800.00000 0 -10544092.727 4380622.765 22812107.878 10 0 60397 83700.00000 0 -12495611.826 2412844.228 22105718.673 10 0 60397 84600.00000 0 -14501850.214 668641.858 20969996.759 10 0 60397 85500.00000 0 -16500997.184 -822442.909 19426860.354 99